#timestamp,LO_Frequency,Hit,StdDev 
1511395215.3,286047003.2,N
1511395235.2,286047001.8,N
1511395255.9,286046997.0,N
1511395275.7,286046995.2,N
1511395295.6,286046996.1,N
1511395315.4,286046997.8,N
1511395335.2,286046996.9,N
1511395355.1,286046996.7,N
1511395356.0,286046996.7,N
1511395375.8,286046995.9,N
1511395395.6,286046995.5,N
1511395415.4,286046997.9,N
1511395435.3,286047001.0,N
1511395455.1,286047000.9,N
1511395475.8,286047000.3,N
1511395495.7,286047004.9,N
1511395515.5,286047012.2,N
1511395535.3,286047014.7,N
1511395555.2,286047018.5,N
1511395575.9,286047021.9,Y
1511395595.7,286047014.4,P
1511395615.6,286047013.5,N
1511395635.4,286047014.2,P
1511395655.2,286047015.5,Y
1511395675.1,286047005.1,P
1511395676.0,286047005.1,N
1511395695.8,286047011.9,P
1511395715.6,286047013.2,Y
1511395735.5,286047002.7,P
1511395755.3,286047001.6,N
1511395775.1,286047002.0,N
1511395795.9,286047003.1,N
1511395815.7,286047006.4,N
1511395835.5,286047007.9,Y
1511395855.4,286047008.1,P
1511395875.2,286047008.5,P
1511395895.0,286047009.6,P
1511395895.9,286047009.6,Y
1511395915.8,286047003.6,P
1511395935.6,286047004.1,N
1511395955.4,286047001.7,N
1511395975.3,286047004.4,N
1511395995.1,286047003.4,N
1511395996.0,286047003.4,N
1511396015.8,286047003.7,N
1511396035.7,286047002.4,N
1511396055.5,286047000.5,N
1511396075.3,286047004.0,N
1511396095.1,286047004.0,N
1511396115.9,286046998.5,N
1511396135.7,286046999.6,N
1511396155.5,286047002.4,N
1511396175.4,286047007.5,Y
1511396195.2,286047003.0,P
1511396215.0,286047009.1,P
1511396215.9,286047009.1,P
1511396235.8,286047008.9,N
1511396255.6,286047010.0,Y
1511396275.4,286047004.6,P
1511396295.3,286047010.7,P
1511396315.1,286047004.9,N
1511396335.8,286047004.7,N
1511396355.7,286047005.8,N
1511396375.5,286047004.3,N
1511396395.3,286046996.9,N
1511396415.2,286046994.6,N
1511396435.9,286046991.5,N
1511396455.7,286046989.2,N
1511396475.6,286046990.8,N
1511396495.4,286046989.3,N
1511396515.2,286046989.7,N
1511396535.0,286046985.9,N
1511396536.0,286046985.9,N
1511396555.8,286046982.5,N
1511396575.6,286046982.7,N
1511396595.4,286046981.3,N
1511396615.3,286046979.7,N
1511396635.1,286046977.9,N
1511396655.8,286046972.5,N
1511396675.7,286046971.4,N
1511396695.5,286046971.5,N
1511396715.3,286046978.5,N
1511396735.2,286046975.0,N
1511396755.9,286046970.0,N
1511396775.7,286046970.5,N
1511396795.6,286046964.7,N
1511396815.4,286046967.6,N
1511396835.2,286046964.3,N
1511396855.0,286046964.3,N
1511396856.0,286046964.3,N
1511396875.8,286046963.9,N
1511396895.6,286046965.6,N
1511396915.5,286046961.8,Y
1511396935.3,286046981.4,P
1511396955.1,286046983.2,P
1511396975.8,286046983.2,P
1511396995.7,286046984.3,Y
1511397015.5,286047005.0,P
1511397035.3,286047008.3,N
1511397055.2,286047008.6,N
1511397075.0,286047009.2,N
1511397075.9,286047009.2,N
1511397095.7,286047006.5,N
1511397115.6,286047011.5,N
1511397135.4,286047016.4,N
1511397155.2,286047014.7,N
1511397175.1,286047016.9,N
1511397176.0,286047016.9,N
1511397195.8,286047013.4,N
1511397215.6,286047013.9,N
1511397235.5,286047013.7,N
1511397255.3,286047011.0,N
1511397275.1,286047014.6,N
1511397295.9,286047015.4,N
1511397315.7,286047012.0,N
1511397335.5,286047010.0,N
1511397355.3,286047002.9,N
1511397375.2,286047000.7,N
1511397395.0,286046997.2,N
1511397395.9,286046997.2,N
1511397415.7,286046995.2,N
1511397435.6,286046996.1,N
1511397455.4,286046994.1,N
1511397475.2,286046992.7,N
1511397495.1,286046986.1,N
1511397496.0,286046986.1,N
1511397515.8,286046986.3,N
1511397535.6,286046982.8,N
1511397555.5,286046982.3,N
1511397575.3,286046985.4,N
1511397595.1,286046989.7,N
1511397615.9,286046990.2,N
1511397635.7,286046993.9,N
1511397655.5,286046999.6,N
1511397675.4,286046996.5,N
1511397695.2,286046996.1,N
1511397715.0,286046990.8,N
1511397715.9,286046990.8,N
1511397735.7,286046992.7,N
1511397755.6,286046990.7,N
1511397775.4,286046985.8,N
1511397795.2,286046982.9,N
1511397815.1,286046982.5,N
1511397816.0,286046982.5,N
1511397835.8,286046982.5,N
1511397855.6,286046988.9,N
1511397875.5,286046989.9,N
1511397895.3,286046987.2,N
1511397915.1,286046990.1,N
1511397935.9,286046991.9,N
1511397955.7,286046991.9,N
1511397975.5,286046994.5,N
1511397995.4,286046998.7,N
1511398015.2,286047001.7,N
1511398035.0,286047003.4,N
1511398035.9,286047003.4,N
1511398055.7,286047004.5,N
1511398075.6,286047012.1,N
1511398095.4,286047013.4,N
1511398115.2,286047016.2,N
1511398135.1,286047016.4,N
1511398136.0,286047016.4,N
1511398155.8,286047016.6,N
1511398175.6,286047017.1,N
1511398195.5,286047015.4,N
1511398215.3,286047015.1,N
1511398235.1,286047015.5,N
1511398255.9,286047015.4,N
1511398275.7,286047015.1,N
1511398295.5,286047017.2,N
1511398315.4,286047018.5,N
1511398335.2,286047017.1,N
1511398355.0,286047020.0,N
1511398355.9,286047020.0,N
1511398375.8,286047017.5,N
1511398395.6,286047020.4,N
1511398415.4,286047015.7,N
1511398435.3,286047018.1,N
1511398455.1,286047020.6,N
1511398456.0,286047020.6,N
1511398475.8,286047022.9,N
1511398495.7,286047025.1,Y
1511398515.5,286047015.1,P
1511398535.3,286047013.5,P
1511398555.2,286047015.3,P
1511398575.9,286047015.1,Y
1511398595.7,286046998.1,P
1511398615.6,286047001.4,N
1511398635.4,286047004.3,N
1511398655.2,286046998.1,N
1511398675.0,286046996.5,N
1511398676.0,286046996.5,N
1511398695.8,286046997.3,N
1511398715.6,286046999.7,N
1511398735.4,286047002.2,N
1511398755.3,286047007.4,N
1511398775.1,286047005.8,N
1511398795.8,286047001.4,N
